{"data":{"norad_id":66132,"intl_designator":"2025-237U","name":"STARLINK-34412","alt_names":[],"object_type":"PAYLOAD","status":"ACTIVE","operator":null,"country":"US","launch_date":"2025-10-22","launch_site_code":"AFWTR","launch_vehicle":null,"mission":null,"orbit_class":"UNKNOWN","rcs_meters":null,"size_class":null,"mass_kg":null,"dimensions":null,"purposes":["comms"],"wikipedia_slug":null,"has_3d_model":false,"image_url":null,"decayed_at":null,"tle_current":{"epoch":"2026-05-25T02:55:05.433888Z","epoch_age_seconds":65331,"freshness":"FRESH","line1":"1 66132U 25237U   26145.12159067  .00014494  00000+0  50054-3 0  9994","line2":"2 66132  53.1600  44.5270 0001247  59.8026 300.3098 15.30199989 34229","mean_motion":15.30199989,"eccentricity":0.0001247,"inclination_deg":53.16,"raan_deg":44.527,"arg_perigee_deg":59.8026,"mean_anomaly_deg":300.3098,"bstar":0.00050054,"rev_number":3422,"period_min":94.10534638293,"perigee_km":474.36048925619,"apogee_km":476.06971527049,"semimajor_km":6853.3521022633,"source":"CELESTRAK","updated_at":"2026-05-25T13:38:21.065778Z"}}}